Regional Weather Roundup
Issued by NWS

Home | Current Version | Previous Version | Text Only | Print | Product List | Glossary Off
Versions: 1 2 3 4 5 6 7 8 9 10 11 12 13 14 15 16 17 18 19 20 21 22 23 24 25 26 27 28 29 30 31 32 33 34 35 36 37 38 39 40 41 42 43 44 45 46 47 48 49 50

026
ASUS45 KCYS 271010
RWRWY

WYOMING REGIONAL WEATHER ROUNDUP
NATIONAL WEATHER SERVICE CHEYENNE WY
400 AM MDT TUE SEP 27 2016

NOTE:  "FAIR" INDICATES FEW OR NO CLOUDS BELOW 12,000 FEET
WITH NO SIGNIFICANT WEATHER AND/OR OBSTRUCTIONS TO VISIBILITY.

WYZ001-271100-
YELLOWSTONE NATIONAL PARK

CITY           SKY/WX    TMP DP  RH WIND       PRES   REMARKS
LK YELLOWSTONE   N/A     30  30 100 NW3       30.43F
W YELLOWSTONE  NOT AVBL

$$
WYZ002>013-054>058-071-098>099-271100-
NORTHERN WYOMING

CITY           SKY/WX    TMP DP  RH WIND       PRES   REMARKS
JACKSON        FAIR      37  37 100 NE3       30.37S
CODY           FAIR      47  44  90 CALM      30.22S
GREYBULL       FAIR      48  45  89 NW6       30.18F
WORLAND        FAIR      45  42  89 S3        30.18F
SHERIDAN       FAIR      46  37  71 S5        30.12F
BUFFALO        FAIR      55  30  38 W10       30.18F
GILLETTE       FAIR      54  43  66 SW10      30.14F
HULETT         FAIR      50  43  76 SW7       30.16S
NEWCASTLE      FAIR      45  39  81 N9        30.19S

$$
WYZ014>020-022>026-101>103-271100-
CENTRAL WYOMING

CITY           SKY/WX    TMP DP  RH WIND       PRES   REMARKS
BIG PINEY      FAIR      38  35  89 CALM      30.38F
PINEDALE       FAIR      34  32  93 NW6       30.39F WCI  29
DUBOIS         FAIR      45  36  70 NW14      30.35F
LANDER         FAIR      46  37  71 CALM      30.27F
RIVERTON       FAIR      47  43  86 W9        30.27F
CASPER         FAIR      46  41  82 SW12      30.25S
DOUGLAS        FAIR      37  35  92 NW6       30.23F WCI  32

$$
WYZ021-027>030-104>119-271100-
SOUTHERN WYOMING

CITY           SKY/WX    TMP DP  RH WIND       PRES   REMARKS
EVANSTON       FAIR      46  33  60 SE5       30.36F
FORT BRIDGER   FAIR      49  36  60 W7        30.38F
ROCK SPRINGS   FAIR      44  39  82 S3        30.35F
DIXON          FAIR      37  34  88 CALM      30.38S
RAWLINS        FAIR      34  31  88 CALM      30.35S
SARATOGA       FAIR      36  32  87 CALM      30.37F
LARAMIE        FAIR      36  34  92 SE3       30.36S
CHEYENNE       FAIR      45  36  70 W8        30.28F
TORRINGTON     FAIR      44  40  85 CALM      30.18F
PINE BLUFFS    FAIR      37  36  93 MISG      30.26F

$$




USA.gov is the U.S. government's official web portal to all federal, state and local government web resources and services.